STARLINK-11727

Satellite information

Favourite Embed

Satellite Type and Status

PAYLOADIN ORBIT

Key statistics

Satellite STARLINK-11727 at a glance.

Uptime

203

Days in orbit

Revolutions

≈ 15.7

Per day

Orbit

LEO

Low Earth Orbit

Inclination

43.0

Latest

Satellite identification and parameters

Extended collection of information and parameters for STARLINK-11727.

Object identification

Identified? True

Debris? False

Object name: STARLINK-11727

International designator: 2025-111A

Object number (NORAD): 64123

Object ID (CCSDS): 64123

Country: UNITED STATES OF AMERICA (US)

Current information (Y/N): Y

RCS size: LARGE

Orbital parameters

Period: 91.659 minutes

Inclination: 43.0014 deg

SMA: 6734.071 km

Apoapsis: 357.551 km

Periapsis: 354.322 km

RAAN: 145.8271 deg

Eccentricy: 0.00023975

Argument of periapsis: 246.7064 deg

Mean anomaly: 113.3552 deg

Mean motion: 15.71036231 rev/day

Mean motion (dot): 0.0034729 rev/day2

B* drag term: 0.0025772159 1/REarth

Two-line elements (TLE)

Creation date: Dec. 11, 2025, 7:14 p.m.

Reference frame: TEME

Reference center: EARTH

Epoch: Dec. 11, 2025, 11:42 a.m. UTC

TLE line 0: 0 STARLINK-11727

TLE line 1: 1 64123U 25111A 25345.48790243 .00347290 00000-0 25772-2 0 9992

TLE line 2: 2 64123 43.0014 145.8271 0002397 246.7064 113.3552 15.71036231 32765

Live tracking on map

Real-time ground track for satellite STARLINK-11727.

In-orbit conjunctions

There are no conjunctions computed for STARLINK-11727, at the moment. Check back to stay up to date, as we update our databases every day.

Go to all conjunctions

Associated space launch

A batch of 23 satellites for the Starlink mega-constellation - SpaceX's project for space-based Internet communication system.

STARLINK-11727 was lifted into orbit during the mission ‘Falcon 9 Block 5 | Starlink Group 12-22’, on board a Falcon 9 space rocket.

The launch took place on May 24, 2025, 5:19 p.m. from Space Launch Complex 40.

For more information about the launch, click the button.

Launch to space Falcon 9 Block 5 | Starlink Group 12-22
Falcon 9 Block 5 | Starlink Group 12-22

Agency: SpaceX

Status: Launch Successful

Launch date: May 24, 2025, 5:19 p.m. UTC

Rocket: Falcon 9

Launch pad: Space Launch Complex 40

Location: Cape Canaveral SFS, FL, USA

...

Latest news about this satellite

News about space launch
Launch Roundup: SpaceX to start new Starlink shell; China, Russia to launch unknown payloads

This week, SpaceX will begin building a new shell for its Starlink constellation, launching from… The post Launch Roundup: SpaceX to start new Starlink shell; China, Russia to launch unknown payloads appeared first on NASASpaceFlight.com.


Newsletter sign-up

Weekly statistics, charts and insights to help you stay on top of the space industry.